This demonstration page uses our WeatherBlox Daily Observations layout. Learn more.

Left ArrowRight Arrow

34.02893, -84.19858

Hourly Observations for December 11, 2018

Temp ( °F °C ) Dew Point ( °F °C ) Humidity (%) Winds ( mph kmh ) Pressure ( in mb ) Visibility ( mi km ) Precip ( " mm )
12:53 am 00:53 Cloudy 40 4.4 38 3.3 93 93 W 5 7 30.23 1024 8 13 0.00 0.00
1:53 am 01:53 Cloudy 40 4.4 38 3.3 93 93 W 6 9 30.23 1024 7 11 0.00 0.00
2:53 am 02:53 Cloudy with Mist and Fog 40 4.4 38 3.3 93 93 WNW 3 6 30.24 1024 6 10 0.00 0.00
3:53 am 03:53 Cloudy with Mist and Fog 39 3.9 38 3.3 96 96 WNW 6 9 30.24 1024 6 10 0.00 0.00
4:39 am 04:39 Cloudy with Mist and Fog 39 3.9 37 2.8 93 93 WNW 6 9 30.24 1024 6 10 0.00 0.00
4:53 am 04:53 Cloudy with Mist and Fog 38 3.3 37 2.8 97 97 W 8 13 30.25 1024 6 10 0.00 0.00
5:02 am 05:02 Cloudy with Mist and Fog 38 3.3 36 2.2 93 93 W 7 11 30.24 1024 6 10 0.00 0.00
5:53 am 05:53 Cloudy 36 2.2 33 0.6 89 89 W 8 13 30.28 1025 7 11 0.00 0.00
6:53 am 06:53 Mostly Cloudy 34 1.1 32 0 92 92 WNW 8 13 30.29 1026 7 11 0.00 0.00
7:19 am 07:19 Mostly Clear with Mist and Fog 33 0.6 31 -0.6 92 92 W 5 7 30.33 1027 6 10 0.00 0.00
7:53 am 07:53 Sunny with Mist and Fog 32 0 30 -1.1 92 92 W 5 7 30.31 1026 5 8 0.00 0.00
8:53 am 08:53 Sunny 34 1.1 29 -1.7 82 82 NW 8 13 30.33 1027 8 13 0.00 0.00
9:53 am 09:53 Sunny 38 3.3 29 -1.7 70 70 NW 9 15 30.35 1028 10 16 0.00 0.00
10:53 am 10:53 Sunny 41 5 28 -2.2 60 60 WNW 8 13 30.34 1027 10 16 0.00 0.00
11:53 am 11:53 Sunny 46 7.8 26 -3.3 46 46 WNW 8 13 30.32 1027 10 16 0.00 0.00
12:53 pm 12:53 Sunny 50 10 24 -4.4 36 36 NW 8 13 30.29 1026 10 16 0.00 0.00
1:53 pm 13:53 Sunny 50 10 21 -6.1 32 32 NW 10 17 30.27 1025 10 16 0.00 0.00
2:53 pm 14:53 Sunny 51 10.6 23 -5 33 33 W 8 13 30.25 1025 10 16 0.00 0.00
3:53 pm 15:53 Sunny 50 10 25 -3.9 38 38 WNW 7 11 30.26 1025 10 16 0.00 0.00
4:53 pm 16:53 Sunny 48 8.9 22 -5.6 36 36 WNW 10 17 30.27 1025 10 16 0.00 0.00
5:53 pm 17:53 Clear 43 6.1 23 -5 45 45 WNW 3 6 30.28 1025 10 16 0.00 0.00
6:53 pm 18:53 Clear 42 5.6 25 -3.9 51 51 WNW 6 9 30.30 1026 10 16 0.00 0.00
7:53 pm 19:53 Clear 39 3.9 25 -3.9 57 57 W 6 9 30.30 1026 10 16 0.00 0.00
8:53 pm 20:53 Clear 38 3.3 25 -3.9 60 60 W 6 9 30.30 1026 10 16 0.00 0.00
9:53 pm 21:53 Clear 37 2.8 25 -3.9 62 62 W 7 11 30.30 1026 10 16 0.00 0.00
10:53 pm 22:53 Clear 35 1.7 25 -3.9 67 67 W 3 6 30.28 1026 10 16 0.00 0.00
11:53 pm 23:53 Clear 30 -1.1 25 -3.9 82 82 Calm 30.28 1025 10 16 0.00 0.00

Powered by AerisWeather